When you browse on this site, cookies collect data to enhance your experience and personalize the content and advertising you see.
Visit our Privacy Policy to learn more. By continuing to use the site, you agree to this use of cookies and data.
  • Em Portugal
  • Lista de países
  • Para 7 dias
  • Temperatura da água
  • Mapas de satélite
  • Mapa do tempo
  • Widgets de tempo
  • user-avatar
    Iniciar Sessão

    Previsão horária em Fesevka

    Hoje, 21 Fevereiro, Quinta-feira

    Tempo Temperatura Precipitação Vento Pressão Humidade
    00:00 -8°C° 0 mm 6 m/s 735 mmHg 78%
    01:00 -8°C° 0 mm 6 m/s 736 mmHg 79%
    02:00 -8°C° 0 mm 4 m/s 736 mmHg 85%
    03:00 -8°C° 0 mm 5 m/s 736 mmHg 83%
    04:00 -10°C° 0 mm 6 m/s 737 mmHg 82%
    05:00 -11°C° 0 mm 7 m/s 737 mmHg 80%
    06:00 -11°C° 0 mm 7 m/s 737 mmHg 80%
    07:00 -11°C° 0 mm 7 m/s 738 mmHg 79%
    08:00 -11°C° 0 mm 7 m/s 738 mmHg 78%
    09:00 -11°C° 0.1 mm 7 m/s 739 mmHg 77%
    10:00 -10°C° 0.1 mm 8 m/s 739 mmHg 75%
    11:00 -10°C° 0.1 mm 8 m/s 740 mmHg 73%
    12:00 -10°C° 0.1 mm 8 m/s 741 mmHg 73%
    13:00 -10°C° 0.1 mm 8 m/s 741 mmHg 72%
    14:00 -8°C° 0.1 mm 8 m/s 741 mmHg 72%
    15:00 -9°C° 0 mm 7 m/s 742 mmHg 73%
    16:00 -10°C° 0 mm 6 m/s 742 mmHg 74%
    17:00 -10°C° 0 mm 6 m/s 743 mmHg 76%
    18:00 -11°C° 0 mm 5 m/s 743 mmHg 77%
    19:00 -12°C° 0 mm 5 m/s 744 mmHg 79%
    20:00 -12°C° 0 mm 5 m/s 744 mmHg 80%
    21:00 -13°C° 0 mm 5 m/s 745 mmHg 81%
    22:00 -13°C° 0 mm 5 m/s 745 mmHg 81%
    23:00 -13°C° 0 mm 5 m/s 746 mmHg 82%

    Amanhã, 22 Fevereiro, Sexta-feira

    Tempo Temperatura Precipitação Vento Pressão Humidade
    00:00 -14°C° 0 mm 5 m/s 746 mmHg 81%
    01:00 -14°C° 0 mm 5 m/s 746 mmHg 81%
    02:00 -14°C° 0 mm 5 m/s 747 mmHg 80%
    03:00 -14°C° 0 mm 5 m/s 747 mmHg 80%
    04:00 -15°C° 0 mm 5 m/s 747 mmHg 81%
    05:00 -15°C° 0 mm 5 m/s 748 mmHg 82%
    06:00 -14°C° 0 mm 5 m/s 748 mmHg 81%
    07:00 -15°C° 0 mm 6 m/s 749 mmHg 80%
    08:00 -15°C° 0 mm 6 m/s 749 mmHg 80%
    09:00 -15°C° 0 mm 7 m/s 750 mmHg 77%
    10:00 -14°C° 0 mm 7 m/s 750 mmHg 75%
    11:00 -13°C° 0 mm 8 m/s 750 mmHg 73%
    12:00 -13°C° 0 mm 8 m/s 751 mmHg 72%
    13:00 -12°C° 0 mm 8 m/s 751 mmHg 70%
    14:00 -12°C° 0 mm 8 m/s 752 mmHg 69%
    15:00 -12°C° 0 mm 7 m/s 752 mmHg 71%
    16:00 -12°C° 0 mm 6 m/s 753 mmHg 73%
    17:00 -12°C° 0 mm 5 m/s 753 mmHg 76%
    18:00 -13°C° 0 mm 5 m/s 754 mmHg 77%
    19:00 -12°C° 0 mm 4 m/s 754 mmHg 79%
    20:00 -14°C° 0 mm 4 m/s 755 mmHg 80%
    21:00 -14°C° 0 mm 4 m/s 756 mmHg 81%
    22:00 -14°C° 0 mm 4 m/s 756 mmHg 82%
    23:00 -15°C° 0 mm 5 m/s 756 mmHg 83%

    Depois de amanhã, 23 Fevereiro, Sábado

    Tempo Temperatura Precipitação Vento Pressão Humidade
    00:00 -15°C° 0 mm 4 m/s 757 mmHg 84%
    01:00 -15°C° 0 mm 4 m/s 757 mmHg 86%
    02:00 -16°C° 0 mm 4 m/s 758 mmHg 87%
    03:00 -16°C° 0 mm 4 m/s 758 mmHg 88%
    04:00 -16°C° 0 mm 4 m/s 758 mmHg 90%
    05:00 -16°C° 0 mm 4 m/s 759 mmHg 91%
    06:00 -16°C° 0 mm 4 m/s 759 mmHg 91%
    07:00 -15°C° 0 mm 3 m/s 759 mmHg 92%
    08:00 -16°C° 0 mm 3 m/s 760 mmHg 92%
    09:00 -14°C° 0 mm 3 m/s 760 mmHg 88%
    10:00 -13°C° 0 mm 3 m/s 760 mmHg 84%
    11:00 -10°C° 0 mm 3 m/s 760 mmHg 80%
    12:00 -9°C° 0 mm 3 m/s 760 mmHg 77%
    13:00 -9°C° 0 mm 3 m/s 760 mmHg 75%
    14:00 -7°C° 0 mm 2 m/s 760 mmHg 72%
    15:00 -7°C° 0 mm 2 m/s 759 mmHg 75%
    16:00 -7°C° 0 mm 2 m/s 759 mmHg 78%
    17:00 -7°C° 0 mm 2 m/s 759 mmHg 81%
    18:00 -7°C° 0 mm 2 m/s 759 mmHg 81%
    19:00 -7°C° 0 mm 2 m/s 759 mmHg 81%
    20:00 -7°C° 0 mm 2 m/s 758 mmHg 81%
    21:00 -7°C° 0 mm 2 m/s 758 mmHg 80%
    22:00 -8°C° 0 mm 3 m/s 758 mmHg 79%
    23:00 -8°C° 0 mm 3 m/s 757 mmHg 79%

    24 Fevereiro, Domingo

    Tempo Temperatura Precipitação Vento Pressão Humidade
    00:00 -7°C° 0.1 mm 3 m/s 757 mmHg 82%
    01:00 -8°C° 0.1 mm 4 m/s 756 mmHg 85%
    02:00 -8°C° 0.1 mm 4 m/s 756 mmHg 89%
    03:00 -8°C° 0.3 mm 4 m/s 756 mmHg 90%
    04:00 -8°C° 0.3 mm 4 m/s 755 mmHg 91%
    05:00 -8°C° 0.3 mm 4 m/s 755 mmHg 93%
    06:00 -6°C° 0.2 mm 3 m/s 754 mmHg 93%
    07:00 -6°C° 0.2 mm 3 m/s 754 mmHg 93%
    08:00 -5°C° 0.2 mm 3 m/s 754 mmHg 94%
    09:00 -5°C° 0 mm 3 m/s 754 mmHg 94%
    10:00 -4°C° 0 mm 3 m/s 755 mmHg 94%
    11:00 -2°C° 0 mm 3 m/s 755 mmHg 94%
    12:00 -2°C° 0 mm 3 m/s 755 mmHg 95%
    13:00 -1°C° 0 mm 2 m/s 755 mmHg 97%
    14:00 -1°C° 0 mm 2 m/s 754 mmHg 98%
    15:00 -1°C° 0 mm 2 m/s 754 mmHg 97%
    16:00 -1°C° 0 mm 2 m/s 754 mmHg 97%
    17:00 -1°C° 0 mm 2 m/s 754 mmHg 96%
    18:00 -1°C° 0 mm 2 m/s 754 mmHg 96%
    19:00 -2°C° 0 mm 2 m/s 754 mmHg 97%
    20:00 -2°C° 0 mm 2 m/s 754 mmHg 97%
    21:00 -2°C° 0 mm 3 m/s 754 mmHg 96%
    22:00 -2°C° 0 mm 3 m/s 754 mmHg 96%
    23:00 -3°C° 0 mm 4 m/s 753 mmHg 95%

    25 Fevereiro, Segunda-feira

    Tempo Temperatura Precipitação Vento Pressão Humidade
    00:00 -3°C° 0.1 mm 4 m/s 753 mmHg 94%
    01:00 -3°C° 0.1 mm 4 m/s 753 mmHg 94%
    02:00 -2°C° 0.1 mm 5 m/s 753 mmHg 93%
    03:00 -2°C° 0 mm 5 m/s 752 mmHg 93%
    04:00 -2°C° 0 mm 5 m/s 751 mmHg 93%
    05:00 -2°C° 0 mm 5 m/s 751 mmHg 93%
    06:00 -1°C° 0.1 mm 5 m/s 751 mmHg 94%
    07:00 -1°C° 0.1 mm 5 m/s 751 mmHg 95%
    08:00 -1°C° 0.1 mm 5 m/s 751 mmHg 95%
    09:00 -1°C° 0 mm 5 m/s 751 mmHg 95%
    10:00 -1°C° 0 mm 5 m/s 751 mmHg 95%
    11:00 0°C° 0 mm 5 m/s 751 mmHg 94%
    12:00 0°C° 0 mm 5 m/s 751 mmHg 92%
    13:00 0°C° 0 mm 5 m/s 751 mmHg 90%
    14:00 0°C° 0 mm 5 m/s 751 mmHg 88%
    15:00 0°C° 0 mm 5 m/s 750 mmHg 85%
    16:00 -1°C° 0 mm 5 m/s 750 mmHg 82%
    17:00 -1°C° 0 mm 5 m/s 750 mmHg 78%
    18:00 -1°C° 0 mm 5 m/s 750 mmHg 80%
    19:00 -1°C° 0 mm 5 m/s 750 mmHg 82%
    20:00 -1°C° 0 mm 5 m/s 750 mmHg 84%
    21:00 -2°C° 0 mm 5 m/s 750 mmHg 85%
    22:00 -2°C° 0 mm 5 m/s 750 mmHg 86%
    23:00 -3°C° 0 mm 4 m/s 750 mmHg 87%

    26 Fevereiro, Terça-feira

    Tempo Temperatura Precipitação Vento Pressão Humidade
    00:00 -4°C° 0 mm 5 m/s 749 mmHg 89%
    01:00 -4°C° 0 mm 5 m/s 749 mmHg 91%
    02:00 -5°C° 0 mm 5 m/s 749 mmHg 92%
    03:00 -4°C° 0 mm 5 m/s 748 mmHg 92%
    04:00 -3°C° 0 mm 4 m/s 748 mmHg 91%
    05:00 -3°C° 0 mm 4 m/s 747 mmHg 90%
    06:00 -3°C° 0 mm 4 m/s 747 mmHg 90%
    07:00 -3°C° 0 mm 4 m/s 747 mmHg 90%
    08:00 -3°C° 0 mm 4 m/s 746 mmHg 91%
    09:00 -2°C° 0 mm 4 m/s 745 mmHg 90%
    10:00 -2°C° 0 mm 4 m/s 745 mmHg 90%
    11:00 -2°C° 0 mm 5 m/s 744 mmHg 90%
    12:00 -1°C° 0 mm 5 m/s 743 mmHg 89%
    13:00 -1°C° 0 mm 5 m/s 742 mmHg 89%
    14:00 -1°C° 0 mm 5 m/s 741 mmHg 89%
    15:00 -1°C° 0 mm 5 m/s 740 mmHg 89%
    16:00 -2°C° 0 mm 6 m/s 739 mmHg 88%
    17:00 -1°C° 0 mm 6 m/s 738 mmHg 88%
    18:00 -2°C° 0.1 mm 7 m/s 738 mmHg 86%
    19:00 -2°C° 0.1 mm 7 m/s 738 mmHg 83%
    20:00 -2°C° 0.1 mm 7 m/s 738 mmHg 81%
    21:00 -2°C° 0 mm 7 m/s 738 mmHg 82%
    22:00 -2°C° 0 mm 7 m/s 738 mmHg 82%
    23:00 -2°C° 0 mm 7 m/s 738 mmHg 83%
    Mostrar mais